This is the latest recevied weather packets stored in our database for station/object KD0MAC. If no packets are shown the sender has not sent any weather packets the latest 10 day(s).
| Time | Temp. | Humidity | Pressure | Rain* | Wind** | Luminosity | Snow |
|---|---|---|---|---|---|---|---|
| 1788371831 | 36.11° C | 32% | 1012.9 hPa | 0 mm | - | 522 W/m² | - |
| 1788371530 | 35.56° C | 35% | 1012.9 hPa | 0 mm | - | 517 W/m² | - |
| 1788371230 | 35.56° C | 35% | 1012.9 hPa | 0 mm | - | 514 W/m² | - |
| 1788370930 | 35.56° C | 34% | 1012.9 hPa | 0 mm | - | 511 W/m² | - |
| 1788370630 | 35.56° C | 34% | 1012.9 hPa | 0 mm | - | 507 W/m² | - |
| 1788370335 | 35.56° C | 35% | 1013.2 hPa | 0 mm | - | 535 W/m² | - |
| 1788370030 | 35.56° C | 36% | 1013.2 hPa | 0 mm | - | 530 W/m² | - |
| 1788369730 | 35° C | 34% | 1013.2 hPa | 0 mm | - | 522 W/m² | - |
| 1788369429 | 35° C | 36% | 1013.2 hPa | 0 mm | - | 516 W/m² | - |
| 1788369129 | 34.44° C | 35% | 1013.2 hPa | 0 mm | - | 509 W/m² | - |
| 1788368829 | 34.44° C | 35% | 1013.5 hPa | 0 mm | - | 500 W/m² | - |
| 1788368530 | 33.89° C | 36% | 1013.5 hPa | 0 mm | - | 495 W/m² | - |
| 1788368230 | 34.44° C | 35% | 1013.5 hPa | 0 mm | - | 491 W/m² | - |
| 1788367932 | 33.89° C | 37% | 1013.5 hPa | 0 mm | - | 484 W/m² | - |
| 1788367629 | 33.33° C | 38% | 1013.5 hPa | 0 mm | - | 476 W/m² | - |
| 1788367329 | 33.33° C | 39% | 1013.5 hPa | 0 mm | - | 467 W/m² | - |
| 1788367030 | 33.33° C | 39% | 1013.5 hPa | 0 mm | - | 459 W/m² | - |
| 1788366731 | 32.78° C | 39% | 1013.5 hPa | 0 mm | - | 451 W/m² | - |
| 1788366431 | 32.78° C | 39% | 1013.5 hPa | 0 mm | - | 442 W/m² | - |
| 1788366131 | 32.78° C | 40% | 1013.5 hPa | 0 mm | - | 434 W/m² | - |
| 1788365833 | 32.22° C | 40% | 1013.5 hPa | 0 mm | - | 424 W/m² | - |
| 1788365529 | 32.22° C | 40% | 1013.5 hPa | 0 mm | - | 417 W/m² | - |
| 1788365230 | 31.67° C | 40% | 1013.5 hPa | 0 mm | - | 407 W/m² | - |
| 1788364930 | 32.22° C | 42% | 1013.5 hPa | 0 mm | - | 397 W/m² | - |
| 1788364652 | 31.67° C | 41% | 1013.5 hPa | 0 mm | - | 387 W/m² | - |
* Rain latest hour (hover to see other rain measurements)
** Current wind speed in m/s (hover to see current wind gust speed)